• In Romania
  • List of Countries
  • For 7 days
  • Water Temperature
  • Satellite Maps
  • Weather Map
  • Weather Widgets
  • user-avatar
    Login

    Hourly Weather Perth

    Today, 30 April, Sunday

    Time Temperature Precipitation Wind Pressure Humidity
    00:00 +15°C° 0 mm 2 mps 764 mmHg 54%
    01:00 +14°C° 0 mm 2 mps 764 mmHg 56%
    02:00 +14°C° 0 mm 2 mps 764 mmHg 57%
    03:00 +13°C° 0 mm 2 mps 764 mmHg 61%
    04:00 +12°C° 0 mm 2 mps 764 mmHg 64%
    05:00 +12°C° 0 mm 2 mps 764 mmHg 67%
    06:00 +13°C° 0 mm 2 mps 764 mmHg 64%
    07:00 +15°C° 0 mm 2 mps 764 mmHg 60%
    08:00 +17°C° 0 mm 2 mps 765 mmHg 57%
    09:00 +19°C° 0 mm 2 mps 765 mmHg 55%
    10:00 +21°C° 0 mm 3 mps 765 mmHg 52%
    11:00 +25°C° 0 mm 3 mps 765 mmHg 49%
    12:00 +25°C° 0 mm 3 mps 764 mmHg 49%
    13:00 +26°C° 0 mm 3 mps 764 mmHg 48%
    14:00 +27°C° 0 mm 3 mps 763 mmHg 47%
    15:00 +26°C° 0 mm 3 mps 764 mmHg 51%
    16:00 +25°C° 0 mm 4 mps 764 mmHg 55%
    17:00 +23°C° 0 mm 4 mps 764 mmHg 59%
    18:00 +21°C° 0 mm 4 mps 764 mmHg 68%
    19:00 +19°C° 0 mm 4 mps 765 mmHg 76%
    20:00 +18°C° 0 mm 4 mps 765 mmHg 85%
    21:00 +17°C° 0 mm 4 mps 766 mmHg 86%
    22:00 +15°C° 0 mm 4 mps 766 mmHg 86%
    23:00 +15°C° 0 mm 4 mps 766 mmHg 87%

    Tomorrow, 1 May, Monday

    Time Temperature Precipitation Wind Pressure Humidity
    00:00 +14°C° 0 mm 4 mps 766 mmHg 86%
    01:00 +14°C° 0 mm 4 mps 767 mmHg 86%
    02:00 +14°C° 0 mm 4 mps 767 mmHg 85%
    03:00 +13°C° 0 mm 4 mps 767 mmHg 83%
    04:00 +13°C° 0 mm 4 mps 767 mmHg 82%
    05:00 +13°C° 0 mm 4 mps 767 mmHg 80%
    06:00 +13°C° 0 mm 4 mps 767 mmHg 77%
    07:00 +13°C° 0 mm 5 mps 767 mmHg 74%
    08:00 +14°C° 0 mm 5 mps 767 mmHg 72%
    09:00 +17°C° 0 mm 4 mps 767 mmHg 65%
    10:00 +19°C° 0 mm 4 mps 767 mmHg 58%
    11:00 +21°C° 0 mm 3 mps 767 mmHg 51%
    12:00 +24°C° 0 mm 3 mps 767 mmHg 47%
    13:00 +25°C° 0 mm 3 mps 766 mmHg 43%
    14:00 +27°C° 0 mm 2 mps 765 mmHg 38%
    15:00 +26°C° 0 mm 2 mps 765 mmHg 41%
    16:00 +25°C° 0 mm 3 mps 765 mmHg 44%
    17:00 +24°C° 0 mm 3 mps 765 mmHg 46%
    18:00 +21°C° 0 mm 3 mps 766 mmHg 50%
    19:00 +20°C° 0 mm 3 mps 766 mmHg 54%
    20:00 +18°C° 0 mm 3 mps 767 mmHg 59%
    21:00 +18°C° 0 mm 4 mps 767 mmHg 58%
    22:00 +17°C° 0 mm 4 mps 767 mmHg 58%
    23:00 +17°C° 0 mm 4 mps 767 mmHg 58%

    Day after tomorrow, 2 May, Tuesday

    Time Temperature Precipitation Wind Pressure Humidity
    00:00 +17°C° 0 mm 4 mps 767 mmHg 57%
    01:00 +15°C° 0 mm 5 mps 767 mmHg 57%
    02:00 +15°C° 0 mm 5 mps 766 mmHg 57%
    03:00 +15°C° 0 mm 5 mps 766 mmHg 58%
    04:00 +14°C° 0 mm 5 mps 766 mmHg 59%
    05:00 +14°C° 0 mm 5 mps 766 mmHg 60%
    06:00 +14°C° 0 mm 4 mps 766 mmHg 59%
    07:00 +15°C° 0 mm 4 mps 767 mmHg 58%
    08:00 +15°C° 0 mm 4 mps 767 mmHg 57%
    09:00 +19°C° 0 mm 4 mps 767 mmHg 50%
    10:00 +22°C° 0 mm 3 mps 767 mmHg 44%
    11:00 +25°C° 0 mm 3 mps 767 mmHg 37%
    12:00 +27°C° 0 mm 2 mps 766 mmHg 34%
    13:00 +28°C° 0 mm 2 mps 765 mmHg 30%
    14:00 +29°C° 0 mm 1 mps 764 mmHg 26%
    15:00 +28°C° 0 mm 1 mps 764 mmHg 32%
    16:00 +26°C° 0 mm 1 mps 764 mmHg 38%
    17:00 +25°C° 0 mm 1 mps 764 mmHg 44%
    18:00 +23°C° 0 mm 2 mps 764 mmHg 45%
    19:00 +20°C° 0 mm 2 mps 765 mmHg 47%
    20:00 +19°C° 0 mm 2 mps 765 mmHg 48%
    21:00 +19°C° 0 mm 3 mps 765 mmHg 47%
    22:00 +19°C° 0 mm 3 mps 765 mmHg 46%
    23:00 +19°C° 0 mm 3 mps 765 mmHg 45%

    3 May, Wednesday

    Time Temperature Precipitation Wind Pressure Humidity
    00:00 +18°C° 0 mm 4 mps 765 mmHg 45%
    01:00 +18°C° 0 mm 4 mps 764 mmHg 45%
    02:00 +18°C° 0 mm 4 mps 764 mmHg 46%
    03:00 +18°C° 0 mm 4 mps 764 mmHg 46%
    04:00 +17°C° 0 mm 5 mps 764 mmHg 47%
    05:00 +16°C° 0 mm 5 mps 763 mmHg 48%
    06:00 +17°C° 0 mm 5 mps 764 mmHg 47%
    07:00 +17°C° 0 mm 5 mps 764 mmHg 47%
    08:00 +17°C° 0 mm 5 mps 764 mmHg 46%
    09:00 +21°C° 0 mm 5 mps 764 mmHg 40%
    10:00 +23°C° 0 mm 5 mps 764 mmHg 35%
    11:00 +27°C° 0 mm 5 mps 764 mmHg 29%
    12:00 +28°C° 0 mm 4 mps 763 mmHg 26%
    13:00 +29°C° 0 mm 4 mps 762 mmHg 24%
    14:00 +31°C° 0 mm 3 mps 762 mmHg 21%
    15:00 +29°C° 0 mm 3 mps 762 mmHg 25%
    16:00 +28°C° 0 mm 3 mps 762 mmHg 29%
    17:00 +27°C° 0 mm 3 mps 762 mmHg 33%
    18:00 +24°C° 0 mm 3 mps 762 mmHg 45%
    19:00 +20°C° 0 mm 3 mps 762 mmHg 57%
    20:00 +17°C° 0 mm 2 mps 762 mmHg 68%
    21:00 +17°C° 0 mm 2 mps 762 mmHg 67%
    22:00 +18°C° 0 mm 2 mps 762 mmHg 66%
    23:00 +18°C° 0 mm 2 mps 762 mmHg 65%

    4 May, Thursday

    Time Temperature Precipitation Wind Pressure Humidity
    00:00 +17°C° 0 mm 2 mps 762 mmHg 65%
    01:00 +17°C° 0 mm 2 mps 762 mmHg 64%
    02:00 +17°C° 0 mm 2 mps 762 mmHg 63%
    03:00 +17°C° 0 mm 2 mps 762 mmHg 64%
    04:00 +17°C° 0 mm 2 mps 762 mmHg 64%
    05:00 +17°C° 0 mm 2 mps 762 mmHg 64%
    06:00 +17°C° 0 mm 2 mps 762 mmHg 66%
    07:00 +18°C° 0 mm 2 mps 763 mmHg 67%
    08:00 +18°C° 0 mm 2 mps 763 mmHg 68%
    09:00 +20°C° 0 mm 2 mps 763 mmHg 64%
    10:00 +24°C° 0 mm 3 mps 763 mmHg 60%
    11:00 +26°C° 0 mm 3 mps 763 mmHg 56%
    12:00 +26°C° 0 mm 3 mps 762 mmHg 55%
    13:00 +26°C° 0 mm 3 mps 762 mmHg 53%
    14:00 +27°C° 0 mm 4 mps 761 mmHg 51%
    15:00 +25°C° 0 mm 3 mps 761 mmHg 58%
    16:00 +24°C° 0 mm 3 mps 761 mmHg 64%
    17:00 +22°C° 0 mm 3 mps 761 mmHg 70%
    18:00 +20°C° 0 mm 3 mps 762 mmHg 78%
    19:00 +19°C° 0 mm 2 mps 762 mmHg 87%
    20:00 +17°C° 0 mm 2 mps 763 mmHg 95%
    21:00 +17°C° 0 mm 2 mps 763 mmHg 96%
    22:00 +17°C° 0 mm 2 mps 763 mmHg 97%
    23:00 +16°C° 0 mm 2 mps 763 mmHg 98%

    5 May, Friday

    Time Temperature Precipitation Wind Pressure Humidity
    00:00 +17°C° 0.1 mm 2 mps 763 mmHg 97%
    01:00 +17°C° 0.1 mm 2 mps 763 mmHg 96%
    02:00 +17°C° 0.1 mm 2 mps 763 mmHg 96%
    03:00 +17°C° 0.1 mm 2 mps 763 mmHg 96%
    04:00 +17°C° 0.1 mm 2 mps 763 mmHg 95%
    05:00 +17°C° 0.1 mm 2 mps 763 mmHg 95%
    06:00 +17°C° 0.1 mm 2 mps 764 mmHg 94%
    07:00 +19°C° 0.1 mm 1 mps 764 mmHg 93%
    08:00 +19°C° 0.1 mm 1 mps 765 mmHg 92%
    09:00 +21°C° 0 mm 1 mps 765 mmHg 79%
    10:00 +23°C° 0 mm 2 mps 765 mmHg 65%
    11:00 +25°C° 0 mm 2 mps 765 mmHg 52%
    12:00 +25°C° 0 mm 2 mps 765 mmHg 50%
    13:00 +25°C° 0 mm 3 mps 764 mmHg 47%
    14:00 +26°C° 0 mm 3 mps 764 mmHg 45%
    15:00 +25°C° 0 mm 3 mps 764 mmHg 50%
    16:00 +24°C° 0 mm 3 mps 765 mmHg 54%
    17:00 +22°C° 0 mm 3 mps 765 mmHg 59%
    18:00 +20°C° 0 mm 3 mps 765 mmHg 68%
    19:00 +18°C° 0 mm 3 mps 766 mmHg 77%
    20:00 +16°C° 0 mm 2 mps 766 mmHg 86%
    21:00 +15°C° 0 mm 2 mps 766 mmHg 87%
    22:00 +15°C° 0 mm 2 mps 766 mmHg 88%
    23:00 +14°C° 0 mm 2 mps 766 mmHg 89%
    Show more